Location: *
(51.1248°S, 108.4023°W)
Time: 19:18:02
(UTC+00:00)

USA 281 - Pass Details

Date: 30 October 2021
Orbit: 1078 x 1081 km, 106.0° (Epoch: 25 November)

Event Time Altitude Azimuth Distance (km) Brightness Sun altitude
Exits shadow 03:35:02 - 13° (NNE) 3,219 5.2 -11.6°
Reaches altitude 10° 03:35:49 10° 12° (NNE) 2,927 5.0 -11.7°
Maximum altitude 03:42:19 60° 292° (WNW) 1,241 3.7 -12.5°
Drops below altitude 10° 03:48:54 10° 212° (SSW) 2,958 6.8 -13.2°
Sets 03:51:30 0° 208° (SSW) 3,920 7.7 -13.5°
